Location: Chiroubles
(46.1812°N, 4.6660°E)
Time: 10:11:34
(UTC+00:00)

SR - Pass Details

Date: 05 December 2020
Orbit: 575 x 880 km, 66.7° (Epoch: 19 January)

Event Time Altitude Azimuth Distance (km) Brightness Sun altitude
Rises 17:58:39 0° 252° (WSW) 2,852 ? -20.5°
Reaches altitude 10° 18:01:15 10° 268° (W) 1,990 ? -20.9°
Maximum altitude 18:04:48 23° 321° (NW) 1,395 ? -21.5°
Enters shadow 18:07:42 14° 5° (N) 1,872 ? -22.0°
